This demonstration page uses our WeatherBlox Daily Observations layout. Learn more.

Left ArrowRight Arrow

44.8408, -93.29828

Hourly Observations for November 19, 2020

Temp ( °F °C ) Dew Point ( °F °C ) Humidity (%) Winds ( mph kmh ) Pressure ( in mb ) Visibility ( mi km ) Precip ( " mm )
12:53 am 00:53 Mostly Cloudy 50 10 39 3.9 66 66 SSW 7 11 29.69 1006 10 16 0.00 0.00
1:53 am 01:53 Mostly Cloudy 48 8.9 39 3.9 71 71 S 5 7 29.69 1006 10 16 0.00 0.00
2:53 am 02:53 Mostly Cloudy 43 6.1 38 3.3 82 82 Calm 29.70 1006 10 16 0.00 0.00
3:53 am 03:53 Mostly Cloudy 44 6.7 38 3.3 79 79 SW 3 6 29.71 1006 10 16 0.00 0.00
4:53 am 04:53 Mostly Cloudy 45 7.2 39 3.9 80 80 Calm 29.70 1006 10 16 0.00 0.00
5:53 am 05:53 Partly Cloudy 40 4.4 37 2.8 89 89 Calm 29.70 1006 10 16 0.00 0.00
6:53 am 06:53 Mostly Cloudy 45 7.2 39 3.9 80 80 S 7 11 29.69 1006 10 16 0.00 0.00
7:53 am 07:53 Mostly Cloudy 43 6.1 38 3.3 82 82 NNW 7 11 29.72 1006 10 16 0.00 0.00
8:53 am 08:53 Mostly Cloudy 46 7.8 40 4.4 79 79 Calm 29.69 1006 10 16 0.00 0.00
9:18 am 09:18 Mostly Cloudy 45 7.2 41 5 86 86 WNW 9 15 29.76 1008 10 16 0.00 0.00
9:53 am 09:53 Mostly Cloudy 48 8.9 41 5 77 77 NNW 8 13 29.75 1008 10 16 0.00 0.00
10:53 am 10:53 Mostly Cloudy 51 10.6 40 4.4 66 66 VRB 3 6 29.76 1008 10 16 0.00 0.00
11:53 am 11:53 Mostly Cloudy 51 10.6 40 4.4 66 66 ESE 5 7 29.74 1007 10 16 0.00 0.00
12:53 pm 12:53 Mostly Cloudy 53 11.7 40 4.4 61 61 VRB 3 6 29.75 1007 10 16 0.00 0.00
1:53 pm 13:53 Mostly Cloudy 53 11.7 40 4.4 61 61 Calm 29.78 1008 10 16 0.00 0.00
2:53 pm 14:53 Mostly Cloudy 54 12.2 40 4.4 59 59 Calm 29.78 1008 10 16 0.00 0.00
3:53 pm 15:53 Mostly Cloudy 51 10.6 40 4.4 66 66 WNW 5 7 29.83 1010 10 16 0.00 0.00
4:53 pm 16:53 Mostly Cloudy 49 9.4 39 3.9 69 69 NW 6 9 29.85 1011 10 16 0.00 0.00
5:53 pm 17:53 Mostly Cloudy 48 8.9 38 3.3 68 68 W 3 6 29.88 1012 10 16 0.00 0.00
6:53 pm 18:53 Partly Cloudy 46 7.8 38 3.3 73 73 WNW 7 11 29.90 1013 10 16 0.00 0.00
7:53 pm 19:53 Mostly Clear 45 7.2 38 3.3 77 77 NW 6 9 29.92 1013 10 16 0.00 0.00
8:53 pm 20:53 Mostly Clear 44 6.7 37 2.8 76 76 WNW 8 13 29.94 1014 9 14 0.00 0.00
9:53 pm 21:53 Partly Cloudy 43 6.1 36 2.2 76 76 WNW 5 7 29.97 1015 10 16 0.00 0.00
10:53 pm 22:53 Mostly Cloudy 42 5.6 37 2.8 82 82 WNW 6 9 29.99 1016 10 16 0.00 0.00
11:53 pm 23:53 Mostly Clear 42 5.6 36 2.2 79 79 WNW 15 24 30.03 1017 10 16 0.00 0.00

Powered by AerisWeather